Time,TemperatureF,DewpointF,PressureIn,WindDirection,WindDirectionDegrees,WindSpeedMPH,WindSpeedGustMPH,Humidity,HourlyPrecipIn,Conditions,Clouds,dailyrainin,SoftwareType,DateUTC
2013-09-24 00:00:00,77.2,76.0,29.75,North,-999,0.0,0.0,96,0.00,,,-99.99,WeatherLink 5.6,2013-09-24 05:00:00,
2013-09-24 00:30:00,77.0,75.8,29.75,ENE,67,0.0,2.0,96,0.00,,,-99.99,WeatherLink 5.6,2013-09-24 05:30:00,
2013-09-24 01:00:00,76.8,75.6,29.76,ENE,67,0.0,2.0,96,0.00,,,-99.99,WeatherLink 5.6,2013-09-24 06:00:00,
2013-09-24 01:30:00,76.7,75.5,29.75,ENE,67,1.0,3.0,96,0.00,,,-99.99,WeatherLink 5.6,2013-09-24 06:30:00,
2013-09-24 02:00:00,76.3,75.1,29.76,NE,45,1.0,4.0,96,0.01,,,-99.99,WeatherLink 5.6,2013-09-24 07:00:00,
2013-09-24 02:30:00,76.1,74.9,29.77,NE,45,1.0,4.0,96,0.01,,,-99.99,WeatherLink 5.6,2013-09-24 07:30:00,
2013-09-24 03:00:00,76.0,75.1,29.75,ENE,67,2.0,5.0,97,0.00,,,-99.99,WeatherLink 5.6,2013-09-24 08:00:00,
2013-09-24 03:30:00,75.8,74.9,29.75,ENE,67,2.0,6.0,97,0.00,,,-99.99,WeatherLink 5.6,2013-09-24 08:30:00,
2013-09-24 04:00:00,75.6,74.7,29.75,ENE,67,2.0,6.0,97,0.00,,,-99.99,WeatherLink 5.6,2013-09-24 09:00:00,
2013-09-24 04:30:00,75.8,74.9,29.76,NE,45,1.0,6.0,97,0.00,,,-99.99,WeatherLink 5.6,2013-09-24 09:30:00,
2013-09-24 05:00:00,75.8,74.9,29.76,East,90,2.0,5.0,97,0.00,,,-99.99,WeatherLink 5.6,2013-09-24 10:00:00,
2013-09-24 05:30:00,76.0,75.1,29.75,East,90,1.0,5.0,97,0.00,,,-99.99,WeatherLink 5.6,2013-09-24 10:30:00,
2013-09-24 06:00:00,75.8,74.9,29.76,ENE,67,0.0,3.0,97,0.00,,,-99.99,WeatherLink 5.6,2013-09-24 11:00:00,
2013-09-24 06:30:00,75.8,74.9,29.77,ENE,67,1.0,4.0,97,0.00,,,-99.99,WeatherLink 5.6,2013-09-24 11:30:00,
2013-09-24 07:00:00,76.0,75.1,29.77,East,90,0.0,3.0,97,0.00,,,-99.99,WeatherLink 5.6,2013-09-24 12:00:00,
2013-09-24 07:30:00,76.3,75.4,29.77,East,90,0.0,4.0,97,0.00,,,-99.99,WeatherLink 5.6,2013-09-24 12:30:00,
2013-09-24 08:00:00,76.7,75.8,29.77,ENE,67,0.0,2.0,97,0.01,,,-99.99,WeatherLink 5.6,2013-09-24 13:00:00,
2013-09-24 08:30:00,77.2,76.3,29.77,ENE,67,0.0,1.0,97,0.01,,,-99.99,WeatherLink 5.6,2013-09-24 13:30:00,
2013-09-24 09:00:00,77.9,76.7,29.77,East,90,0.0,4.0,96,0.00,,,-99.99,WeatherLink 5.6,2013-09-24 14:00:00,
2013-09-24 09:30:00,79.0,76.1,29.77,SE,135,2.0,7.0,91,0.00,,,-99.99,WeatherLink 5.6,2013-09-24 14:30:00,
2013-09-24 10:00:00,81.8,74.3,29.77,SE,135,2.0,11.0,78,0.00,,,-99.99,WeatherLink 5.6,2013-09-24 15:00:00,
2013-09-24 10:30:00,84.0,73.6,29.78,SE,135,4.0,15.0,71,0.00,,,-99.99,WeatherLink 5.6,2013-09-24 15:30:00,
2013-09-24 11:00:00,83.6,74.0,29.78,SE,135,6.0,17.0,73,0.00,,,-99.99,WeatherLink 5.6,2013-09-24 16:00:00,
2013-09-24 11:30:00,84.5,75.3,29.76,SE,135,4.0,14.0,74,0.00,,,-99.99,WeatherLink 5.6,2013-09-24 16:30:00,
2013-09-24 12:00:00,85.3,76.5,29.74,SE,135,3.0,12.0,75,0.00,,,-99.99,WeatherLink 5.6,2013-09-24 17:00:00,
2013-09-24 12:30:00,84.1,75.3,29.73,SE,135,4.0,14.0,75,0.00,,,-99.99,WeatherLink 5.6,2013-09-24 17:30:00,
2013-09-24 13:00:00,84.9,75.3,29.72,SE,135,5.0,16.0,73,0.00,,,-99.99,WeatherLink 5.6,2013-09-24 18:00:00,
2013-09-24 13:30:00,83.4,75.0,29.71,SE,135,3.0,11.0,76,0.00,,,-99.99,WeatherLink 5.6,2013-09-24 18:30:00,
2013-09-24 14:00:00,84.3,74.7,29.69,SE,135,4.0,15.0,73,0.00,,,-99.99,WeatherLink 5.6,2013-09-24 19:00:00,
2013-09-24 14:30:00,85.1,75.5,29.68,SE,135,4.0,14.0,73,0.00,,,-99.99,WeatherLink 5.6,2013-09-24 19:30:00,
2013-09-24 15:00:00,85.3,75.2,29.67,SE,135,4.0,14.0,72,0.00,,,-99.99,WeatherLink 5.6,2013-09-24 20:00:00,
2013-09-24 15:30:00,83.4,75.4,29.68,SSE,157,2.0,10.0,77,0.00,,,-99.99,WeatherLink 5.6,2013-09-24 20:30:00,
2013-09-24 16:00:00,81.8,75.0,29.69,SE,135,3.0,13.0,80,0.00,,,-99.99,WeatherLink 5.6,2013-09-24 21:00:00,
2013-09-24 16:30:00,80.7,76.1,29.67,SE,135,2.0,7.0,86,0.00,,,-99.99,WeatherLink 5.6,2013-09-24 21:30:00,
2013-09-24 17:00:00,80.5,77.3,29.69,SE,135,0.0,7.0,90,0.04,,,-99.99,WeatherLink 5.6,2013-09-24 22:00:00,
2013-09-24 17:30:00,77.9,75.1,29.70,East,90,1.0,5.0,91,0.13,,,-99.99,WeatherLink 5.6,2013-09-24 22:30:00,
2013-09-24 18:00:00,77.0,75.1,29.69,SE,135,1.0,14.0,94,0.35,,,-99.99,WeatherLink 5.6,2013-09-24 23:00:00,
2013-09-24 18:30:00,76.8,75.3,29.69,ENE,67,0.0,4.0,95,0.26,,,-99.99,WeatherLink 5.6,2013-09-24 23:30:00,
2013-09-24 19:00:00,76.5,75.3,29.67,ENE,67,0.0,3.0,96,0.00,,,-99.99,WeatherLink 5.6,2013-09-25 00:00:00,
2013-09-24 19:30:00,76.3,75.1,29.68,North,-999,0.0,0.0,96,0.00,,,-99.99,WeatherLink 5.6,2013-09-25 00:30:00,
2013-09-24 20:00:00,76.3,75.1,29.67,NE,45,1.0,4.0,96,0.00,,,-99.99,WeatherLink 5.6,2013-09-25 01:00:00,
2013-09-24 20:30:00,76.1,74.9,29.68,East,90,0.0,4.0,96,0.00,,,-99.99,WeatherLink 5.6,2013-09-25 01:30:00,
2013-09-24 21:00:00,76.5,75.6,29.69,East,90,1.0,5.0,97,0.00,,,-99.99,WeatherLink 5.6,2013-09-25 02:00:00,
2013-09-24 21:30:00,75.4,74.5,29.69,East,90,2.0,6.0,97,0.01,,,-99.99,WeatherLink 5.6,2013-09-25 02:30:00,
2013-09-24 22:00:00,74.7,73.8,29.68,ENE,67,1.0,6.0,97,0.01,,,-99.99,WeatherLink 5.6,2013-09-25 03:00:00,
2013-09-24 22:30:00,74.4,73.5,29.68,East,90,0.0,2.0,97,0.00,,,-99.99,WeatherLink 5.6,2013-09-25 03:30:00,
2013-09-24 23:00:00,74.2,73.3,29.69,NE,45,0.0,3.0,97,0.00,,,-99.99,WeatherLink 5.6,2013-09-25 04:00:00,
2013-09-24 23:30:00,73.3,72.4,29.69,NE,45,1.0,5.0,97,0.00,,,-99.99,WeatherLink 5.6,2013-09-25 04:30:00,